Regional Weather Roundup
Issued by NWS

Home | Current Version | Previous Version | Graphics & Text | Print | Product List | Glossary On
Versions: 1 2 3 4 5 6 7 8 9 10 11 12 13 14 15 16 17 18 19 20 21 22 23 24 25 26 27 28 29 30 31 32 33 34 35 36 37 38 39 40 41 42 43 44 45 46 47 48 49 50
000
ASUS44 KMEG 060500
RWRTN
TENNESSEE HOURLY STATE WEATHER ROUNDUP
NATIONAL WEATHER SERVICE MEMPHIS TN
1100 PM CST MON DEC 05 2016

TNZ002-004-019-021-049-052-054-088>092-060600-
WEST TENNESSEE

CITY           SKY/WX    TMP DP  RH WIND       PRES   REMARKS
MEMPHIS INTL   LGT RAIN  47  47 100 NE3       29.71F FOG
NWS MEMPHIS      N/A     46 N/A N/A MISG        N/A
JACKSON        CLOUDY    47  46  97 NE3       29.73F FOG
DYERSBURG      CLOUDY   N/A N/A N/A E6        29.74F
UNION CITY     CLOUDY    43  43 100 NE3       29.75F
PARIS          CLOUDY    41  39  93 E3        29.75S
$$

TNZ008-025-027-028-033-062-065-066-060600-
NORTH MIDDLE TENNESSEE

CITY           SKY/WX    TMP DP  RH WIND       PRES   REMARKS
NASHVILLE      CLOUDY    48  46  93 VRB3      29.75F
CLARKSVILLE    CLOUDY    44  41  89 NE6       29.75F FOG
SMYRNA         LGT RAIN  48  47  96 E6        29.74F
CROSSVILLE     CLOUDY    49  47  93 SE3       29.79S
$$

TNZ061-075-076-078-094-096-097-060600-
SOUTH MIDDLE TENNESSEE

CITY           SKY/WX    TMP DP  RH WIND       PRES   REMARKS
WINCHESTER     CLOUDY    54  52  94 SE9       29.75F
SHELBYVILLE    MOCLDY    52  52 100 NE6       29.75F
$$

TNZ017-018-042-046-047-060600-
NORTHEAST TENNESSEE

CITY           SKY/WX    TMP DP  RH WIND       PRES   REMARKS
TRI CITIES     CLOUDY    47  45  93 E5        29.89S
$$

TNZ012-013-036-069-073-074-060600-
CENTRAL EAST TENNESSEE

CITY           SKY/WX    TMP DP  RH WIND       PRES   REMARKS
KNOXVILLE      LGT RAIN  49  46  90 N6        29.81F
OAK RIDGE      CLOUDY    51  44  77 E5        29.82F
GATLINBURG     CLOUDY    46  46 100 CALM      29.81F
$$

TNZ083-085-099-060600-
SOUTHEAST TENNESSEE

CITY           SKY/WX    TMP DP  RH WIND       PRES   REMARKS
CHATTANOOGA    LGT RAIN  50  48  93 CALM      29.82F FOG
$$

SKY/WX REPORTED AS FAIR MEANS FEW OR NO CLOUDS BELOW
12 THOUSAND FEET.





USA.gov is the U.S. government's official web portal to all federal, state and local government web resources and services.